This demonstration page uses our WeatherBlox Daily Observations layout. Learn more.

Left ArrowRight Arrow

Hourly Observations for June 25, 2015

Temp ( °F °C ) Dew Point ( °F °C ) Humidity (%) Winds ( mph kmh ) Pressure ( in mb ) Visibility ( mi km ) Precip ( " mm )
12:49 am 00:49 Mostly Clear 73 23 72 22 94 94 N 9 15 29.85 1011 8 13 N/A
12:54 am 00:54 Partly Cloudy 74 23.3 71 21.7 91 91 N 9 15 29.88 1012 8 13 N/A
1:46 am 01:46 Mostly Cloudy 73 23 72 22 94 94 N 6 9 29.85 1011 7 11 N/A
1:54 am 01:54 Mostly Cloudy 73 22.8 70 21.1 90 90 NNE 9 15 29.88 1012 7 11 N/A
2:35 am 02:35 Partly Cloudy 72 22.2 70 21.1 94 94 N 7 11 29.91 1013 8 13 N/A
2:54 am 02:54 Clear 71 21.7 69 20.6 94 94 N 7 11 29.89 1012 8 13 N/A
3:54 am 03:54 Partly Cloudy 70 21.1 69 20.6 97 97 N 7 11 29.91 1013 7 11 N/A
4:54 am 04:54 Clear 69 20.6 68 20 96 96 N 8 13 29.92 1013 7 11 N/A
5:24 am 05:24 Partly Cloudy with Mist and Fog 68 20 67 19.4 96 96 N 8 13 29.94 1014 6 10 N/A
5:33 am 05:33 Mostly Cloudy with Mist and Fog 69 20.6 68 20 96 96 N 8 13 29.94 1014 6 10 N/A
5:54 am 05:54 Cloudy with Mist and Fog 69 20.6 68 20 96 96 N 12 19 29.93 1013 5 8 N/A
6:04 am 06:04 Cloudy with Mist and Fog 70 21 68 20 94 94 N 12 19 29.94 1014 4 6 N/A
6:45 am 06:45 Cloudy with Mist and Fog 69 20.6 67 19.4 93 93 N 12 19 29.94 1014 5 8 N/A
6:54 am 06:54 Cloudy with Mist and Fog 69 20.6 67 19.4 93 93 NNE 12 19 29.94 1014 5 8 N/A
7:38 am 07:38 Cloudy with Mist and Fog 70 21 66 19 88 88 NNE 13 20 29.97 1015 4 6 N/A
7:54 am 07:54 Cloudy with Mist and Fog 69 20.6 66 18.9 90 90 NNE 10 17 29.96 1015 5 8 N/A
8:17 am 08:17 Cloudy with Mist and Fog 69 20.6 66 18.9 90 90 NNE 14 22 29.97 1015 4 6 N/A
8:54 am 08:54 Cloudy with Mist and Fog 69 20.6 66 18.9 90 90 N 10 17 29.98 1015 6 10 N/A
9:54 am 09:54 Cloudy with Mist and Fog 71 21.7 67 19.4 87 87 NNE 12 19 29.99 1016 6 10 N/A
10:51 am 10:51 Cloudy 72 22 66 19 83 83 NE 9 15 30.00 1016 7 11 N/A
10:54 am 10:54 Cloudy 72 22.2 67 19.4 84 84 NE 10 17 29.99 1016 7 11 N/A
11:54 am 11:54 Cloudy 72 22.2 66 18.9 82 82 ENE 7 11 30.00 1016 9 14 N/A
12:29 pm 12:29 Cloudy 74 23.3 67 19.4 79 79 ENE 6 9 30.00 1016 8 13 N/A
12:54 pm 12:54 Cloudy 74 23.3 67 19.4 79 79 NE 5 7 29.99 1016 9 14 N/A
1:04 pm 13:04 Cloudy 75 23.9 67 19.4 76 76 NE 7 11 29.97 1015 10 16 N/A
1:54 pm 13:54 Mostly Cloudy 76 24.4 67 19.4 74 74 ENE 6 9 29.99 1016 10 16 N/A
2:35 pm 14:35 Partly Cloudy 75 24 66 19 74 74 NE 8 13 29.94 1014 10 16 N/A
2:54 pm 14:54 Sunny 76 24.4 67 19.4 74 74 ESE 7 11 29.98 1015 10 16 N/A
3:54 pm 15:54 Sunny 76 24.4 67 19.4 74 74 ESE 7 11 29.98 1015 10 16 N/A
4:54 pm 16:54 Sunny 80 26.7 68 20 67 67 E 13 20 29.94 1014 7 11 N/A
5:54 pm 17:54 Partly Cloudy 80 26.7 68 20 67 67 ESE 9 15 29.95 1014 8 13 N/A
6:54 pm 18:54 Mostly Cloudy 80 26.7 68 20 67 67 E 6 9 29.95 1014 9 14 N/A
7:10 pm 19:10 Mostly Cloudy 81 27 68 20 66 66 ENE 7 11 29.91 1013 9 14 N/A
7:17 pm 19:17 Mostly Cloudy 80 26.7 69 20.6 69 69 NE 5 7 29.91 1013 9 14 N/A
7:25 pm 19:25 Mostly Cloudy 79 26.1 69 20.6 72 72 NNE 14 22 29.91 1013 9 14 N/A
7:37 pm 19:37 Mostly Cloudy 78 25.6 67 19.4 69 69 NNE 12 19 29.91 1013 10 16 N/A
7:54 pm 19:54 Mostly Cloudy 77 25 67 19.4 71 71 NNE 10 17 29.95 1014 10 16 N/A
8:54 pm 20:54 Partly Cloudy 74 23.3 67 19.4 79 79 NNE 12 19 29.92 1013 10 16 N/A
9:54 pm 21:54 Mostly Cloudy 74 23.3 67 19.4 79 79 NNE 9 15 29.97 1015 10 16 N/A
10:54 pm 22:54 Mostly Cloudy 72 22.2 66 18.9 82 82 NNE 9 15 29.98 1015 10 16 N/A
11:54 pm 23:54 Mostly Clear 70 21.1 65 18.3 84 84 ENE 8 13 29.96 1015 10 16 N/A

Powered by AerisWeather